Location: Newark
(41.6500°N, 71.4833°W)
Time: 23:33:12
(UTC+00:00)

Transit 2A Rocket - Pass Details

Date: 26 January 2020
Orbit: 592 x 911 km, 66.7° (Epoch: 19 February)

Event Time Altitude Azimuth Distance (km) Brightness Sun altitude
Rises 18:47:04 0° 327° (NNW) 3,036 7.8 24.6°
Reaches altitude 10° 18:49:19 10° 325° (NW) 2,163 7.2 24.4°
Maximum altitude 18:54:13 69° 243° (WSW) 798 5.9 24.0°
Drops below altitude 10° 18:59:35 10° 161° (SSE) 2,363 8.2 23.5°
Sets 19:02:07 0° 159° (SSE) 3,339 8.8 23.2°
